Terminal Aerodrome Forecast
Issued by NWS Quad Cities IA IL

Home | Current Version | Previous Version | Text Only | Print | Product List | Glossary On
Versions: 1 2 3 4 5 6 7 8 9 10 11 12 13 14 15 16 17 18 19 20 21 22 23 24 25 26
000
FTUS43 KDVN 022300
TAFMLI
TAF
KMLI 022320Z 0300/0324 29007KT P6SM SKC
     FM030400 VRB03KT P6SM SKC
      TEMPO 0308/0312 4SM BR
     FM031600 17009KT P6SM SCT050=

USA.gov is the U.S. government's official web portal to all federal, state and local government web resources and services.